Ketchikan, AK

9:53 PM AKDT on September 20, 2018 (GMT -0800)
Ketchikan International

Weather History for PAKT - November, 2017

Change the Weather History Date:

Monday, November 6, 2017

  Actual Average Record
Temperature  
Mean Temperature 37 °F -  
Max Temperature 42 °F 46 °F 63 °F (1962)
Min Temperature 32 °F 35 °F 19 °F (1973)
Degree Days  
Heating Degree Days 28    
Moisture  
Dew Point 24 °F    
Average Humidity 60    
Maximum Humidity 82    
Minimum Humidity 34    
Precipitation  
Precipitation 0.03 in - - ()
Sea Level Pressure  
Sea Level Pressure 29.96 in    
Wind  
Wind Speed 12 mph (SSE)    
Max Wind Speed 30 mph    
Max Gust Speed 37 mph    
Visibility 10 miles    
Events Rain    
Averages and records for this station are not official NWS values.
T = Trace of Precipitation, MM = Missing Value Source: NWS Daily Summary

Daily Weather History Graph

Daily Weather History Graph

Search for Another Location

Airport or City:

Astronomy

Nov. 06, 2017 Rise Set
Actual Time 7:02 AM AKST 3:57 PM AKST
Civil Twilight 6:23 AM AKST 4:36 PM AKST
Nautical Twilight 5:39 AM AKST 5:20 PM AKST
Astronomical Twilight 4:56 AM AKST 6:03 PM AKST
Moon 6:20 PM AKST (11/6) 9:55 AM AKST (11/6)
Length of Visible Light 10h 13m
Length of Day
8h 54m
Waning Gibbous, 90% of the Moon is Illuminated
Nov 6
Waning Gibbous
Nov 10
Last Quarter
Nov 18
New
Nov 26
First Quarter
Dec 3
Full

Hourly Weather History & Observations

Time (AKST) Temp. Windchill Dew Point Humidity Pressure Visibility Wind Dir Wind Speed Gust Speed Precip Events Conditions
12:53 AM 33.1 °F 27.7 °F 23.0 °F 66% 30.09 in 10.0 mi SE 5.8 mph - N/A   Clear
1:53 AM 32.0 °F 27.5 °F 18.0 °F 56% 30.08 in 10.0 mi South 4.6 mph - N/A   Clear
2:53 AM 32.0 °F 28.7 °F 18.0 °F 56% 30.06 in 10.0 mi South 3.5 mph - N/A   Clear
3:53 AM 35.1 °F 29.3 °F 18.0 °F 50% 30.04 in 10.0 mi South 6.9 mph - N/A   Clear
4:53 AM 36.0 °F 30.3 °F 18.0 °F 48% 30.03 in 10.0 mi South 6.9 mph - N/A   Clear
5:53 AM 35.6 °F 28.6 °F 17.6 °F 48% 30.01 in 10.0 mi SSE 9.2 mph - N/A   Clear
6:00 AM 35.1 °F 27.9 °F 18.0 °F 50% 30.01 in 10.0 mi South 9.2 mph - N/A   Clear
6:53 AM 36.0 °F 29.0 °F 16.0 °F 44% 30.00 in 10.0 mi South 9.2 mph - N/A   Clear
7:53 AM 37.9 °F 29.6 °F 15.1 °F 39% 29.99 in 10.0 mi SSE 13.8 mph - N/A   Partly Cloudy
8:53 AM 39.9 °F 32.1 °F 14.0 °F 35% 29.99 in 10.0 mi SSE 13.8 mph - N/A   Mostly Cloudy
9:53 AM 39.9 °F 29.2 °F 18.0 °F 41% 29.98 in 10.0 mi ESE 25.3 mph 32.2 mph N/A   Mostly Cloudy
10:53 AM 41.0 °F 30.0 °F 15.1 °F 35% 29.96 in 10.0 mi SE 28.8 mph 36.8 mph N/A   Overcast
11:53 AM 42.1 °F 32.1 °F 15.1 °F 34% 29.93 in 10.0 mi SE 25.3 mph 35.7 mph N/A   Overcast
12:53 PM 41.0 °F 29.8 °F 21.0 °F 45% 29.93 in 10.0 mi SE 29.9 mph 35.7 mph N/A   Overcast
1:53 PM 37.4 °F 27.8 °F 30.2 °F 75% 29.92 in 10.0 mi SE 17.3 mph 28.8 mph N/A   Overcast
2:53 PM 37.4 °F 26.6 °F 30.2 °F 75% 29.91 in 6.0 mi SE 21.9 mph 33.4 mph N/A Rain Light Rain
3:53 PM 37.4 °F 29.8 °F 32.0 °F 81% 29.88 in 6.0 mi SSE 11.5 mph 28.8 mph N/A Rain Light Rain
4:53 PM 37.4 °F 26.6 °F 32.0 °F 81% 29.87 in 10.0 mi SSE 21.9 mph 28.8 mph N/A Rain Light Rain
5:53 PM 37.4 °F 27.8 °F 30.2 °F 75% 29.87 in 10.0 mi SE 17.3 mph 26.5 mph N/A Rain Light Rain
6:53 PM 37.4 °F 27.5 °F 30.2 °F 75% 29.89 in 10.0 mi SSE 18.4 mph 28.8 mph N/A Rain Light Rain
7:53 PM 37.4 °F 28.2 °F 30.2 °F 75% 29.90 in 10.0 mi SSE 16.1 mph 25.3 mph N/A Rain Light Rain
8:53 PM 37.4 °F 28.5 °F 32.0 °F 81% 29.91 in 10.0 mi SSE 15.0 mph 24.2 mph N/A Rain Light Rain
9:53 PM 39.0 °F 30.6 °F 34.0 °F 82% 29.93 in 10.0 mi SSE 15.0 mph 24.2 mph 0.00 in Rain Light Rain
10:53 PM 39.0 °F 31.4 °F 34.0 °F 82% 29.94 in 10.0 mi SSE 12.7 mph 19.6 mph 0.02 in Rain Light Rain
11:53 PM 39.9 °F 32.1 °F 34.0 °F 79% 29.95 in 10.0 mi SSE 13.8 mph 24.2 mph 0.01 in Rain Light Rain